Wind_Speed
17 17 17 17 18 18 18 18 18 18 17 17 16 15 15 14 14 13 13 13 14 14 15 18 21 23 23 22 22 20 20 18 18 16 9 10 14 17 22 27 28 28 29 29 29 26 24 21 20 18 16 15 13 13 12 11 9 8 4 3 5 4 2 3 3 3 3 4 4 2 1 3 3 4 4 6 6 5 4 3 3 7 7 7 11 11 10 11
18 18 18 18 18 18 18 18 18 18 18 18 17 17 16 15 14 13 13 13 13 13 14 15 17 20 21 22 22 21 21 19 20 16 8 11 14 14 19 25 28 29 29 30 29 27 25 22 21 19 18 16 15 15 14 12 12 9 4 6 6 3 3 4 4 3 3 4 5 4 2 2 4 5 4 5 6 7 5 2 1 5 6 6 8 10 11 13
19 19 19 19 19 19 19 19 19 19 19 18 18 18 17 16 15 14 13 13 12 12 12 13 15 17 19 21 22 22 21 20 20 16 12 15 14 14 18 21 25 28 28 28 28 27 25 23 22 21 20 19 17 17 16 14 13 10 7 8 7 4 5 5 3 2 2 4 5 3 4 2 3 5 4 3 4 8 6 2 0 2 5 5 6 7 11 14
20 20 20 20 20 20 20 20 20 19 19 19 19 19 18 17 17 16 15 13 12 12 11 12 13 14 16 18 20 21 21 20 20 16 15 17 14 15 17 18 22 25 26 27 28 27 26 25 23 22 22 21 20 19 18 16 13 11 10 8 6 5 6 6 4 2 1 3 3 3 4 3 1 4 4 3 3 5 4 0 2 2 4 5 4 5 9 13
20 20 20 20 20 20 20 20 20 20 20 20 20 19 18 18 17 17 16 15 13 12 11 12 12 13 14 16 18 19 18 16 17 18 17 17 16 16 17 17 20 23 26 28 29 29 29 28 26 25 24 23 23 21 20 18 14 13 11 7 7 7 7 6 6 3 0 1 2 2 3 1 2 6 4 3 1 0 1 2 3 3 6 6 3 3 8 12
20 20 20 20 20 20 21 21 21 20 20 20 21 20 19 18 17 17 17 17 15 13 12 12 12 12 13 15 16 17 17 14 14 15 16 17 16 16 17 17 20 23 26 28 30 31 30 30 30 29 26 25 25 22 21 19 16 16 13 8 7 11 11 9 8 4 1 1 2 3 2 3 5 7 5 2 2 4 2 2 2 3 6 8 7 6 7 11
20 20 20 20 20 20 20 21 21 20 20 21 21 20 19 19 18 17 17 17 15 14 14 13 13 13 13 14 15 17 19 16 14 13 13 15 15 15 17 18 20 23 26 29 30 31 31 31 32 30 28 27 26 23 23 21 18 17 14 10 9 13 14 12 10 6 3 3 4 5 4 6 7 7 5 2 4 8 5 2 2 2 3 6 10 9 8 10
21 21 21 21 21 21 21 21 21 20 20 21 21 21 20 19 18 17 17 17 16 15 15 15 14 13 14 14 14 16 14 11 16 19 15 15 14 14 16 18 21 23 26 28 30 30 30 31 31 30 30 28 26 25 25 22 19 20 15 11 11 15 16 14 12 9 7 6 6 7 6 7 9 8 6 1 6 9 6 5 4 2 1 3 9 11 11 12
22 22 22 22 22 22 22 22 22 21 21 21 21 21 20 19 19 18 17 17 17 16 16 17 15 15 14 14 14 12 8 12 21 24 22 20 16 14 16 17 20 22 25 27 27 29 29 30 30 29 29 27 28 28 27 23 18 20 18 14 13 15 16 15 13 12 10 9 9 9 9 10 11 10 7 4 8 8 8 9 6 4 2 1 7 11 13 14
22 23 23 23 23 23 22 22 22 21 21 22 22 21 20 19 19 19 18 17 17 16 16 17 16 16 15 15 14 8 9 16 21 22 23 22 19 17 16 17 19 22 25 26 27 28 29 29 26 27 29 28 30 30 29 24 18 20 21 18 17 17 18 17 14 14 13 11 11 11 11 10 11 13 8 7 11 9 9 12 10 7 4 3 5 10 14 15
23 23 24 24 24 24 24 23 22 22 22 22 22 23 21 20 20 19 19 18 18 17 16 16 17 17 16 17 14 8 12 18 19 20 20 19 20 20 18 18 18 21 24 26 27 27 26 25 24 26 28 28 30 30 30 28 23 24 23 20 20 18 18 19 16 15 15 14 12 12 13 12 14 14 5 8 11 9 10 12 13 12 8 5 5 9 14 16
24 24 24 24 25 25 25 24 23 22 22 22 22 23 22 21 21 20 20 19 19 18 17 16 17 17 18 17 10 8 16 20 20 22 20 19 20 20 19 18 18 20 22 24 25 23 23 24 26 27 24 25 27 24 26 30 28 25 24 23 21 19 19 20 18 15 16 15 13 13 13 14 15 10 2 7 8 8 11 11 13 15 12 9 7 8 12 16
24 24 24 25 25 26 26 26 24 23 23 23 23 23 22 22 21 21 20 20 19 19 18 18 18 18 20 17 10 13 20 20 21 23 22 22 22 21 20 19 19 20 20 22 20 20 23 25 28 26 22 21 19 19 23 25 27 25 24 24 20 19 20 20 18 17 17 16 14 13 13 11 8 4 3 5 6 7 10 11 13 15 15 13 10 9 11 14
26 26 26 26 26 27 26 26 25 24 24 24 24 23 23 22 21 21 21 21 20 20 20 20 19 19 20 14 11 17 20 19 21 23 24 23 23 22 21 20 20 21 22 24 22 22 24 25 26 24 23 21 15 20 24 17 19 20 20 22 19 18 19 17 17 18 16 16 16 13 14 11 4 6 8 7 6 9 9 11 12 15 16 15 14 11 11 12
28 27 28 28 28 29 28 27 26 25 25 25 24 24 23 23 22 21 21 21 20 20 21 21 21 21 20 14 14 18 20 20 19 20 24 24 22 21 21 22 22 21 22 25 27 27 26 26 26 25 24 25 20 19 20 15 16 15 16 20 21 20 18 15 18 21 17 13 16 14 14 12 5 10 12 9 6 11 12 12 12 14 16 16 16 14 12 11
28 28 28 28 29 30 29 28 28 26 26 25 25 25 24 24 23 22 21 21 21 21 21 22 22 22 22 17 16 19 21 20 17 19 24 24 23 22 22 24 23 21 21 24 27 27 27 26 27 27 22 25 29 22 16 17 18 16 19 20 20 22 20 17 17 20 18 13 15 16 16 12 5 11 14 10 7 8 12 14 13 14 16 17 17 16 15 12
29 29 29 29 30 31 30 29 29 27 27 26 26 25 25 24 24 22 21 22 22 21 21 22 23 24 23 18 16 20 22 21 20 22 24 24 25 25 25 26 23 21 22 26 28 26 27 26 25 28 24 23 28 25 20 23 23 19 20 21 19 19 19 19 15 16 20 17 16 17 19 16 9 12 16 13 10 9 11 14 15 15 16 17 18 18 17 15
30 30 30 30 31 32 31 30 30 28 28 28 27 26 25 24 24 23 22 22 22 21 21 22 24 24 21 19 19 20 21 24 25 24 24 25 27 27 27 26 24 23 23 27 28 27 27 26 23 24 26 27 27 28 30 28 24 22 20 21 22 18 17 19 14 13 16 15 16 17 18 18 13 14 19 16 11 9 10 13 15 16 17 18 19 19 18 17
31 30 30 30 31 33 32 32 31 29 28 28 28 27 26 25 24 24 23 22 22 21 20 21 22 21 19 18 19 21 22 24 26 26 26 26 27 28 28 27 26 25 26 28 28 29 28 25 25 27 29 33 33 33 33 26 20 21 21 20 22 21 20 21 16 12 14 13 14 18 18 17 14 13 19 19 13 10 10 14 16 17 18 19 19 20 19 18
32 31 31 31 32 33 33 32 31 31 29 29 28 27 27 25 24 25 23 22 22 22 22 23 22 21 22 21 18 19 23 23 25 28 29 28 28 29 30 30 29 26 28 29 28 30 30 27 30 35 33 31 34 33 29 23 18 18 20 20 21 23 21 20 16 14 20 20 16 17 18 17 15 13 16 20 17 13 12 15 18 17 18 19 19 20 20 19
32 31 31 30 31 32 33 32 31 30 30 29 28 26 26 25 24 25 25 22 22 23 24 24 25 25 25 25 23 19 22 25 26 28 30 30 30 32 34 34 33 31 30 27 25 27 31 32 34 35 31 26 28 31 28 25 21 18 20 20 22 25 23 20 16 14 19 22 18 16 18 19 18 15 15 20 21 17 14 14 17 18 18 18 18 20 21 20
33 32 31 30 30 31 32 32 31 30 29 28 27 26 25 25 24 26 28 24 20 22 24 23 26 27 24 26 27 24 24 26 27 29 31 32 35 37 37 37 37 34 30 27 25 27 32 38 36 29 27 25 23 26 29 27 23 22 22 21 23 25 24 21 19 17 18 20 19 18 20 21 19 16 15 20 23 20 15 14 15 16 18 18 18 18 21 22
34 33 31 30 30 30 31 31 30 29 28 27 26 26 25 23 23 25 28 28 21 20 23 24 26 26 23 26 28 31 31 27 28 31 32 35 39 40 39 40 38 32 30 33 32 31 33 35 33 28 25 26 25 24 28 27 25 26 25 26 28 26 22 21 20 19 19 20 21 18 20 23 20 19 19 22 27 23 16 14 14 16 17 19 19 18 20 22
35 33 32 30 28 29 29 29 29 27 26 26 24 24 24 22 23 24 26 30 27 21 20 23 27 25 24 26 27 32 34 31 30 31 32 38 40 41 41 40 38 33 33 37 36 33 31 24 24 29 27 26 28 26 27 28 27 29 30 31 29 24 22 21 15 11 13 17 21 19 21 26 25 23 23 24 29 28 20 16 16 18 18 18 20 21 20 20
34 33 32 30 28 27 28 27 26 26 25 24 23 22 21 20 20 21 23 26 26 22 19 21 23 23 26 29 28 29 33 36 35 32 34 39 40 42 42 39 37 35 35 36 34 34 30 20 18 26 29 29 30 28 29 29 27 28 32 33 29 22 21 20 15 12 14 16 18 18 18 23 25 25 24 21 25 30 25 20 19 18 18 19 20 22 21 19
34 32 31 30 28 26 26 26 25 25 24 22 23 21 20 19 16 17 20 21 20 17 16 16 16 19 26 29 29 29 30 35 36 34 36 38 41 43 40 38 38 35 33 33 32 33 30 23 21 25 29 31 30 30 30 29 27 27 27 28 28 25 22 20 17 18 21 20 17 17 16 18 21 23 21 19 23 29 26 23 22 19 17 20 20 20 21 21
35 32 30 30 29 27 25 25 24 24 23 20 21 20 18 16 14 13 14 13 11 8 11 14 12 15 20 24 27 26 25 29 33 38 41 38 41 46 38 34 38 36 31 29 31 33 31 26 24 25 27 27 30 31 30 28 28 26 20 19 24 28 26 22 19 19 22 22 19 18 18 20 24 24 18 16 20 23 25 26 25 21 17 18 19 20 21 22
36 34 31 29 30 28 26 25 24 23 23 20 19 18 16 14 11 8 7 6 4 6 8 10 12 13 15 17 20 24 26 25 27 34 41 39 40 47 42 34 36 38 34 31 32 32 30 31 29 27 28 26 28 29 26 28 29 24 17 14 18 23 25 24 21 21 21 21 23 23 20 19 25 28 22 19 21 21 25 30 28 24 20 17 18 20 21 21
37 36 33 29 28 28 26 25 24 22 22 20 19 17 13 11 8 4 4 5 3 6 6 5 9 9 11 13 15 24 31 26 21 27 37 41 41 44 44 36 32 34 34 33 32 27 24 31 32 28 29 27 25 24 24 28 29 24 16 12 14 16 20 21 20 21 21 21 25 26 23 19 21 28 26 23 24 24 27 31 31 29 23 18 16 17 21 22
38 37 35 31 29 27 25 25 23 22 21 19 17 16 12 9 7 6 7 7 4 5 8 9 9 6 8 9 10 20 31 30 23 23 32 42 44 42 41 36 28 28 32 32 32 28 21 24 29 28 30 29 22 19 23 27 26 22 17 13 13 14 16 17 19 20 18 19 25 26 26 21 18 26 28 25 25 25 26 27 28 31 28 21 17 15 18 21
38 37 36 33 30 27 25 23 22 21 20 17 17 15 10 8 9 10 7 6 6 5 7 11 11 9 8 8 7 13 24 29 23 17 27 41 45 42 37 34 30 27 29 32 34 33 25 21 25 30 31 28 22 19 20 23 24 21 18 16 15 14 15 15 17 19 14 15 20 23 26 24 22 28 26 23 26 27 26 24 24 29 30 24 19 15 15 19
36 36 36 34 31 29 25 23 21 20 18 16 15 12 7 9 13 16 11 4 5 5 8 11 13 13 11 9 7 10 16 24 23 17 25 38 43 45 42 37 36 31 30 32 31 32 33 26 22 26 32 29 24 22 21 21 24 24 21 20 17 12 12 12 13 15 14 15 16 18 21 25 32 36 26 19 23 25 26 26 24 25 28 27 22 16 14 16
35 34 33 32 31 29 26 23 20 18 16 13 12 9 8 11 11 15 14 8 6 6 7 10 13 14 11 6 5 9 12 17 22 19 20 30 35 41 43 37 36 34 26 26 27 29 30 27 24 26 30 33 30 26 25 24 26 28 26 25 20 12 9 10 10 10 13 15 17 16 16 22 31 32 27 27 27 23 23 24 23 24 25 27 24 18 15 15
34 33 32 31 29 27 25 23 20 17 14 11 9 8 10 15 13 10 10 9 11 14 12 10 9 9 8 6 6 9 11 12 19 20 18 25 30 33 37 36 36 34 24 20 27 30 25 24 31 34 29 32 36 32 26 22 25 29 28 25 23 18 11 8 9 10 11 12 16 17 15 17 20 19 19 26 30 28 28 29 27 26 26 27 26 22 19 17
32 32 31 29 27 26 24 22 20 17 13 10 8 10 14 17 16 11 8 10 14 17 19 17 12 8 8 9 8 7 10 10 14 19 19 23 28 29 33 36 35 34 28 23 23 28 28 23 27 33 30 28 33 34 26 20 22 27 26 26 27 25 18 11 9 10 10 9 12 20 19 14 14 14 13 14 20 26 30 31 32 32 30 29 30 27 23 19
31 30 29 28 26 25 23 21 19 16 13 9 8 12 14 12 11 9 8 11 14 16 18 16 11 9 9 9 6 4 8 9 9 16 20 20 22 24 25 28 33 34 31 28 22 22 27 21 18 27 29 27 30 33 30 25 21 23 28 31 29 24 21 17 12 9 8 8 9 18 22 18 15 19 19 17 17 20 22 24 25 28 28 26 29 30 25 20
31 30 28 27 25 23 21 18 17 14 12 9 9 12 11 9 11 12 12 15 17 16 15 11 6 6 6 4 3 4 6 10 7 12 20 19 18 23 24 25 31 34 31 30 25 20 21 17 16 26 29 28 28 28 31 30 23 21 27 30 24 19 19 18 13 9 9 9 10 17 21 20 18 17 18 23 26 24 25 26 25 26 24 22 25 28 26 23
31 30 28 25 25 24 21 18 15 13 10 7 10 12 10 9 11 13 14 16 16 15 13 13 10 7 5 6 7 7 4 8 5 7 16 19 15 21 30 28 30 35 37 37 27 17 18 17 15 23 27 27 28 27 28 33 29 23 21 23 23 20 20 20 14 10 10 8 9 16 20 20 22 18 13 19 26 27 27 28 27 25 25 25 26 25 25 25
31 28 25 24 24 23 21 18 14 10 7 7 9 10 9 10 11 11 13 14 13 11 13 15 13 10 9 9 11 9 6 5 3 4 9 13 10 16 30 31 29 35 40 43 33 14 14 18 13 18 25 24 27 31 31 33 33 27 20 21 25 22 19 22 20 14 11 9 7 12 15 16 22 24 18 16 18 21 22 24 26 25 25 28 29 27 26 25
30 25 21 24 24 21 20 16 11 7 5 7 8 8 10 12 11 10 11 12 11 9 12 13 13 14 13 12 12 11 9 9 8 6 5 6 5 10 24 29 29 34 36 41 39 20 12 18 14 15 22 26 29 33 34 32 33 33 29 26 27 25 18 17 21 21 16 10 6 8 9 10 12 18 22 21 17 18 19 20 23 24 22 24 25 26 27 27
29 23 19 24 23 20 18 13 8 6 5 5 7 9 10 10 10 11 11 11 10 9 11 14 15 16 16 14 13 11 10 11 9 8 7 5 4 4 15 24 25 28 29 32 36 28 18 19 19 16 21 28 28 28 30 30 30 33 33 30 28 27 22 13 14 21 22 16 11 8 8 7 5 7 15 19 18 17 18 19 21 21 20 20 21 20 23 25
28 22 21 23 22 20 15 9 7 7 5 6 8 9 10 10 10 12 11 10 9 9 9 12 14 15 16 15 14 12 10 11 9 8 5 3 5 5 9 15 18 19 19 21 28 32 27 20 20 21 20 21 21 21 26 28 29 31 31 30 29 28 26 19 12 15 20 20 18 14 12 8 4 5 9 12 14 14 15 16 18 19 18 18 18 17 18 21
25 21 21 23 22 18 13 8 9 9 9 9 9 9 10 10 11 11 11 11 9 8 8 8 9 11 12 12 12 12 11 12 10 8 5 1 4 9 9 10 15 16 14 14 17 25 30 24 19 20 18 16 15 18 23 26 28 32 33 32 33 31 29 24 16 13 16 19 19 15 11 8 7 8 8 8 9 9 11 13 15 16 17 17 16 17 18 18
26 21 21 23 20 15 12 11 12 12 12 12 10 10 9 9 10 11 11 11 10 8 8 8 8 9 10 10 12 12 11 10 9 8 7 4 5 9 11 9 11 12 12 15 15 16 25 27 24 19 13 13 14 15 22 29 32 34 33 33 34 31 29 28 23 18 16 18 20 15 9 7 8 8 7 8 8 8 9 10 11 13 15 15 16 18 19 18
25 20 19 22 18 13 13 13 13 13 14 15 13 11 10 9 11 12 12 12 10 9 10 10 11 11 11 10 12 13 12 11 10 7 7 6 6 8 11 10 8 7 10 16 19 18 18 21 26 24 15 13 14 13 19 29 32 32 30 30 32 32 31 29 26 23 19 18 21 20 13 7 5 5 6 7 9 9 9 9 9 11 13 15 16 17 18 18
24 18 19 21 15 11 15 15 13 13 14 15 15 12 11 12 12 13 13 11 10 10 11 12 13 13 12 11 10 12 13 13 13 10 8 7 8 8 11 10 8 8 8 10 16 18 13 13 22 27 21 13 12 11 15 22 26 29 31 28 29 32 32 30 28 26 22 19 23 25 19 11 8 8 9 10 9 7 7 8 8 8 10 13 14 16 18 17
21 16 19 21 14 11 14 13 11 12 12 14 15 12 11 13 14 14 13 10 10 11 11 10 11 10 10 9 8 9 10 11 13 13 11 10 9 8 8 7 6 8 7 5 9 12 9 10 19 27 23 14 8 7 12 18 19 21 27 30 29 30 31 34 33 28 21 19 21 23 23 21 16 11 10 11 9 8 7 6 6 8 9 10 10 14 18 17
20 15 17 18 15 13 14 13 12 13 13 13 13 11 11 12 13 14 13 11 11 10 8 8 10 11 11 10 8 10 9 9 11 12 10 11 11 8 6 4 5 6 4 2 3 7 8 9 14 20 20 17 15 10 9 14 14 13 19 24 28 31 32 35 35 30 26 23 19 16 20 25 24 18 13 10 9 9 9 9 10 10 10 11 10 10 14 15
21 19 17 17 15 12 13 14 13 13 13 12 10 10 10 12 13 13 13 13 13 10 6 8 11 12 13 12 10 12 10 8 10 10 6 8 10 8 7 6 5 5 3 3 3 6 9 7 7 11 13 14 18 16 11 10 12 13 17 19 22 27 30 32 33 32 31 30 24 19 19 21 23 23 21 17 14 13 12 13 15 13 11 13 12 8 9 13
20 19 18 18 16 12 12 14 13 12 14 11 8 10 12 13 14 14 13 13 13 10 7 8 11 12 13 11 10 12 12 11 12 12 7 8 7 6 7 7 7 7 4 2 4 4 7 6 6 7 11 12 15 17 15 14 13 14 18 21 22 24 26 28 30 31 32 32 30 27 25 23 21 22 23 22 21 20 19 20 21 18 16 16 14 10 9 12
18 17 19 20 18 14 12 12 12 13 13 11 9 12 13 13 13 14 14 12 11 8 7 9 11 11 12 11 10 11 12 13 15 15 13 11 9 8 9 10 9 9 8 5 5 4 5 6 6 5 10 12 13 14 16 16 15 18 21 24 26 28 28 27 27 27 28 29 30 30 31 27 22 21 23 23 23 23 23 23 25 24 22 19 17 16 14 14
18 17 18 19 19 16 13 13 12 11 12 11 11 13 13 12 12 13 13 12 10 9 9 12 14 13 12 12 11 12 12 13 14 15 15 15 14 13 13 14 12 11 10 9 8 7 6 7 5 4 8 11 10 11 13 12 13 22 29 30 29 28 29 28 29 29 27 26 27 28 26 24 21 21 21 21 22 23 23 24 26 25 25 24 22 21 19 19
Wind_Direction
299 297 297 296 294 292 291 289 288 287 286 285 284 283 281 280 279 279 279 279 279 274 267 260 256 255 253 253 253 253 255 258 260 260 267 263 249 235 223 219 217 214 217 219 221 222 222 222 223 224 225 228 234 240 247 251 256 262 243 233 244 229 196 145 118 96 86 47 33 32 121 196 299 347 347 352 10 17 27 59 135 163 159 154 154 146 160 183
301 299 298 297 295 294 292 290 289 287 287 286 285 284 282 282 280 279 279 278 279 278 274 266 259 256 253 253 252 252 253 254 256 255 250 254 254 245 232 223 219 217 217 218 218 219 221 221 223 224 225 228 232 238 244 249 254 257 246 241 243 223 206 174 136 100 90 52 40 46 73 177 267 318 337 338 347 357 5 14 134 176 179 164 159 156 162 177
302 302 300 299 298 296 295 293 291 289 288 287 285 284 283 282 282 281 280 278 277 278 277 271 264 259 255 252 251 252 251 251 254 253 246 248 252 247 238 227 221 220 218 218 218 218 219 218 220 222 223 225 227 236 241 244 252 255 239 236 245 226 213 203 166 133 88 54 38 44 55 101 253 312 335 311 326 351 359 348 128 176 197 182 170 169 168 173
302 302 301 300 300 298 297 296 294 293 291 289 286 284 283 282 281 281 280 280 278 277 276 273 268 263 258 253 252 251 251 254 255 250 246 246 244 242 239 228 219 219 218 217 216 217 216 214 215 218 222 224 224 232 240 242 246 252 244 231 237 215 200 210 194 181 103 59 44 46 47 63 320 348 351 292 297 342 346 275 158 170 195 194 177 175 176 174
303 302 302 301 300 299 298 296 296 295 293 292 289 286 284 282 281 280 280 280 279 278 273 271 269 263 259 254 251 249 248 256 257 248 243 242 238 237 237 227 215 214 216 216 214 214 214 212 211 213 217 222 226 229 236 242 239 246 250 235 227 204 190 202 199 192 154 64 33 19 22 359 343 18 13 303 249 337 327 156 151 165 166 173 181 178 181 176
308 306 304 303 301 300 298 297 297 296 296 293 291 290 288 285 283 281 280 279 278 277 271 265 264 263 260 254 250 247 239 238 248 242 237 237 235 235 234 225 213 210 213 213 215 214 212 211 210 212 213 219 226 228 234 240 238 245 253 244 218 195 192 205 211 215 232 296 315 311 308 274 324 4 5 347 189 205 219 152 144 162 159 165 176 171 175 177
313 311 309 307 304 302 300 298 298 297 296 294 292 292 291 290 287 284 281 278 276 272 269 263 259 259 259 257 251 246 240 230 233 235 229 228 227 228 229 223 213 210 212 212 214 213 212 213 212 212 212 216 224 226 232 235 236 243 244 240 218 190 191 205 215 222 242 275 285 282 293 284 308 329 327 14 201 222 231 226 204 181 173 165 167 163 169 175
319 317 315 312 309 306 304 302 300 298 296 293 292 292 293 292 289 286 282 279 275 268 265 262 258 257 257 259 254 251 248 222 217 225 221 212 211 217 220 220 215 212 213 214 214 214 214 215 214 214 213 215 221 224 230 233 236 241 238 234 218 195 197 210 217 224 245 266 274 282 301 295 292 297 299 293 208 220 217 225 222 211 242 166 166 165 169 174
325 323 321 318 315 312 309 307 304 302 298 294 292 292 292 291 288 286 283 280 275 268 263 262 260 258 256 258 258 254 237 205 210 220 221 212 208 216 218 217 216 215 216 216 216 215 215 216 214 215 216 216 222 225 230 231 235 242 241 237 221 206 213 222 223 226 241 257 267 283 294 291 285 284 287 229 210 219 219 224 221 217 242 215 182 172 168 173
327 325 324 321 319 316 313 311 309 307 303 299 296 293 291 289 286 285 284 280 276 272 265 262 261 259 257 256 255 241 213 215 216 219 222 218 214 218 219 217 215 215 218 218 218 215 215 215 214 218 218 218 223 226 229 228 228 238 240 239 230 223 226 229 226 226 238 255 265 281 286 283 275 277 280 225 219 222 226 229 226 226 224 234 207 181 172 172
327 326 324 322 320 317 315 314 313 310 307 304 300 297 294 290 285 284 282 280 278 275 268 264 260 257 256 254 253 235 219 224 223 222 220 215 212 213 217 218 214 213 217 220 220 217 215 212 212 219 221 221 225 228 232 230 227 234 241 242 239 237 235 231 228 228 238 253 261 275 283 274 267 274 264 223 229 221 226 229 227 232 227 227 223 196 183 175
327 326 323 321 319 316 315 314 314 313 310 307 303 300 299 293 288 284 281 278 277 275 271 266 260 257 254 252 253 229 222 223 223 224 219 212 210 210 215 216 211 210 215 220 221 217 213 211 211 213 217 222 225 229 235 235 231 234 241 243 245 248 243 234 228 227 238 250 259 271 277 267 269 287 263 231 233 213 229 229 224 233 231 228 227 213 198 185
326 325 323 321 318 315 314 313 313 313 311 308 305 303 301 297 292 286 282 278 275 273 272 268 261 257 254 251 243 226 225 223 222 223 220 215 212 212 216 213 209 207 209 213 214 214 211 212 213 207 209 217 219 226 229 235 236 233 239 243 248 253 245 234 229 230 239 246 252 264 267 256 256 288 314 277 239 215 237 235 229 234 233 232 233 229 214 201
324 323 322 321 318 315 314 314 313 312 310 308 305 304 302 299 295 290 285 279 274 271 269 267 263 258 256 251 232 229 231 228 224 222 221 217 212 213 214 209 207 206 207 204 197 201 207 211 212 204 208 210 210 229 227 232 241 232 238 242 243 247 238 228 227 227 231 245 251 253 256 250 213 233 284 314 251 226 235 238 239 239 236 236 235 236 230 220
322 321 320 319 317 314 314 314 313 313 311 308 305 303 301 299 296 292 288 283 277 271 267 265 263 260 258 250 230 228 231 230 224 221 222 216 209 209 208 206 206 207 209 205 196 194 199 206 207 201 210 211 205 222 222 224 237 225 225 232 231 236 233 224 228 226 223 244 254 241 243 250 220 231 268 312 270 235 233 236 241 241 240 237 235 236 236 232
320 319 318 317 315 312 312 313 312 313 311 308 305 302 300 298 296 293 289 286 280 273 267 263 261 259 258 250 232 228 230 230 220 216 219 215 206 203 202 202 202 206 206 201 196 192 194 200 204 202 207 214 212 212 215 222 226 217 219 226 225 226 227 226 229 229 224 234 248 239 240 250 233 233 261 305 304 259 241 236 235 239 241 237 236 236 236 236
318 317 316 315 313 310 310 310 309 311 309 306 304 302 299 297 294 292 289 285 281 276 269 262 259 257 256 251 236 228 227 225 216 214 215 209 205 201 200 199 197 202 203 196 190 188 192 194 201 204 204 213 214 209 213 220 217 212 217 225 226 222 222 222 219 228 232 232 238 242 246 251 248 244 262 293 307 280 250 238 233 234 239 238 237 237 237 238
317 316 315 314 312 309 309 309 308 308 307 305 302 300 298 296 293 290 286 282 279 277 271 263 257 255 257 251 242 233 227 222 217 217 215 208 205 202 199 199 196 197 199 196 190 187 191 193 198 205 206 209 207 205 211 215 212 211 213 219 224 222 222 222 215 222 232 231 232 238 243 247 245 248 264 282 297 286 259 246 241 234 236 238 236 238 240 240
317 317 316 314 312 309 309 308 308 307 306 304 302 299 297 294 293 289 284 280 275 273 269 261 252 248 251 246 239 234 226 221 218 218 218 212 207 203 197 197 198 199 198 195 193 193 193 193 200 206 207 209 206 206 212 214 215 218 218 219 222 224 228 227 225 225 227 227 233 239 245 250 245 247 264 276 288 288 260 243 242 238 236 238 238 238 240 242
319 319 318 316 313 310 309 308 308 307 305 304 302 301 298 296 294 287 282 276 272 267 262 262 257 246 244 243 237 231 224 218 215 214 216 213 209 202 197 197 196 199 203 198 196 200 198 198 208 209 207 209 210 210 212 213 219 221 220 223 225 228 231 228 227 234 236 237 240 244 251 255 251 249 258 267 279 281 263 243 237 237 239 239 239 239 240 243
320 321 320 319 316 312 311 310 309 307 306 304 304 303 300 298 295 287 282 274 269 268 261 258 258 250 244 241 235 228 223 217 212 210 211 210 208 203 200 199 196 198 202 199 198 203 204 209 215 213 208 209 213 214 213 213 218 220 218 224 230 231 233 232 231 234 239 244 246 249 256 257 256 258 249 255 270 276 270 254 237 237 242 243 241 239 239 240
322 323 322 321 319 315 313 312 312 310 308 307 306 305 302 300 296 291 287 278 265 263 263 258 255 252 244 240 235 228 225 218 211 211 208 205 205 204 203 201 199 200 197 193 196 200 208 217 218 213 211 210 213 216 214 213 216 220 221 227 233 233 234 237 235 236 240 247 249 252 260 259 257 258 245 249 266 272 272 261 240 237 244 246 246 243 241 238
324 325 324 324 321 318 316 315 315 314 312 311 310 307 305 304 299 295 292 287 271 257 260 259 256 254 246 240 233 226 225 219 214 214 208 205 203 203 205 204 201 200 195 194 197 198 209 222 219 212 212 212 213 212 210 212 218 223 224 228 232 231 230 234 233 234 240 246 249 253 262 261 257 255 248 254 266 267 265 260 239 229 237 246 249 248 247 243
327 327 327 326 325 321 318 318 318 318 317 314 312 309 308 307 303 298 295 293 284 267 261 257 253 253 248 240 231 226 227 223 219 218 211 207 203 201 205 206 201 199 201 201 202 205 212 222 218 211 212 211 210 210 210 215 222 225 225 226 230 229 229 234 231 225 235 243 246 250 261 262 255 250 249 254 264 263 258 259 244 225 226 237 247 249 250 247
330 331 331 329 329 326 321 321 319 318 319 316 312 311 309 308 305 301 300 301 295 283 271 258 249 245 242 240 231 223 225 224 220 218 215 209 203 200 203 205 202 203 206 205 207 215 219 223 218 207 208 211 210 214 216 216 221 227 228 227 229 230 230 235 233 231 242 244 241 241 253 258 249 245 245 241 253 260 256 256 255 240 228 228 237 247 249 247
330 333 334 331 331 331 326 324 322 319 322 322 317 314 312 310 305 304 308 304 298 290 269 253 245 236 235 237 231 219 222 227 219 213 215 211 203 201 201 203 204 206 208 206 210 220 221 223 223 206 204 212 214 220 220 214 220 227 230 229 229 230 231 233 231 234 243 246 244 235 240 257 251 243 241 229 238 256 259 255 255 252 239 228 230 239 244 244
329 332 335 333 332 333 329 326 324 323 325 325 321 317 314 311 307 313 317 299 282 266 246 236 225 223 226 231 227 211 212 223 218 212 213 210 203 201 202 202 204 206 205 204 213 221 217 215 218 208 205 213 217 221 218 211 218 226 228 229 226 226 228 230 232 237 245 251 250 234 233 255 257 244 236 227 229 245 255 253 252 252 243 229 226 229 236 241
327 329 333 333 331 331 330 328 327 326 325 327 323 318 314 305 299 315 317 287 233 197 228 225 207 212 218 225 218 202 203 211 215 216 213 210 205 202 203 204 206 207 201 202 213 218 213 210 213 209 204 212 218 219 214 209 216 222 222 224 222 222 225 229 235 242 246 251 247 235 230 247 255 247 239 236 229 231 248 254 252 250 245 235 230 227 228 233
326 327 329 330 329 329 329 328 327 325 325 326 322 318 313 295 282 289 272 260 212 191 217 205 197 208 209 213 207 199 201 200 206 214 207 207 209 205 205 205 207 211 207 209 215 215 214 215 217 212 208 216 221 216 211 211 215 217 217 220 219 218 224 228 234 240 243 246 245 237 230 237 252 248 238 232 228 227 242 252 253 250 245 242 242 234 229 227
326 326 327 328 327 327 326 325 325 324 324 324 322 319 309 281 251 236 230 221 197 193 206 197 189 185 187 197 204 205 203 197 205 214 202 202 207 207 208 207 207 215 214 215 219 218 221 223 218 216 219 223 221 214 212 214 214 213 214 215 214 218 224 228 230 233 240 243 241 236 231 235 254 250 236 227 229 233 238 241 247 250 245 242 247 243 233 226
324 325 326 327 326 325 324 322 323 323 324 322 320 316 301 267 234 227 228 207 197 191 193 199 196 189 188 187 196 214 207 200 205 210 197 197 202 204 205 203 203 210 214 217 220 221 223 225 216 218 227 224 215 215 215 212 211 209 208 209 211 214 215 220 221 221 232 240 235 234 231 232 246 249 239 230 234 239 239 230 232 248 250 244 244 248 243 232
324 323 324 325 325 324 323 322 322 320 321 320 315 313 290 254 233 227 238 260 245 219 191 201 205 198 193 185 188 207 206 205 208 206 196 194 197 202 201 198 196 197 206 212 213 217 220 223 216 218 229 221 207 211 209 203 206 205 203 204 206 201 198 209 213 214 230 239 232 231 228 229 240 245 241 233 232 233 238 235 227 240 252 250 242 243 249 239
325 324 324 324 324 325 324 323 323 319 318 315 308 305 268 247 237 230 242 271 283 249 215 213 211 198 192 192 204 208 203 209 209 205 201 194 196 204 205 202 199 198 204 206 203 208 215 221 217 212 222 221 208 203 201 198 200 202 201 200 201 197 192 206 210 217 233 235 228 223 226 233 242 248 245 236 233 229 231 234 227 226 240 251 246 237 245 245
328 328 327 327 324 323 323 322 321 319 316 306 293 287 253 243 247 248 259 278 274 261 254 249 230 209 214 232 236 214 201 207 205 200 200 197 198 204 205 205 205 205 209 207 204 204 205 214 215 206 210 217 209 203 202 198 198 201 201 202 207 210 210 210 211 222 231 229 216 204 212 232 237 245 243 233 233 232 234 238 239 235 236 248 249 240 243 244
332 331 329 329 326 324 324 321 319 318 312 301 283 266 250 249 255 263 290 299 284 273 266 262 260 266 261 237 236 219 189 196 205 199 199 200 201 205 205 205 206 206 209 211 207 206 210 219 216 206 208 212 207 205 204 198 199 201 201 207 214 213 216 230 235 236 240 238 211 201 212 228 232 239 236 221 222 229 238 244 246 248 247 247 247 242 242 241
335 334 332 331 330 328 325 319 317 313 307 301 281 259 252 260 271 276 306 305 291 292 288 277 269 272 259 219 223 241 196 194 204 202 203 203 203 206 204 206 207 206 209 213 210 204 212 222 211 201 205 208 207 206 202 199 198 196 199 210 213 210 216 231 241 244 246 249 217 208 222 230 241 252 242 226 221 218 226 234 236 245 248 244 243 241 238 237
338 337 336 335 332 328 322 318 313 306 306 297 267 261 262 270 276 278 301 302 284 288 301 300 288 277 272 232 247 299 230 208 205 210 206 199 200 203 196 196 202 203 207 215 218 211 211 216 202 194 197 203 207 205 202 204 199 192 201 209 206 205 219 229 236 229 222 239 229 220 230 231 233 247 238 226 228 225 227 232 233 239 241 240 241 240 239 237
342 340 341 340 334 329 325 320 312 305 309 293 262 265 272 277 283 285 303 310 293 285 286 281 280 289 301 291 303 322 259 210 201 218 205 195 202 206 198 195 195 197 203 208 210 212 211 210 195 191 197 199 197 197 202 207 206 203 207 204 195 199 211 214 222 227 219 232 235 228 235 234 228 233 228 219 223 226 229 231 232 233 235 241 244 241 241 242
343 344 347 345 338 333 329 323 320 320 311 281 268 270 274 283 296 299 306 313 310 294 275 268 272 279 288 296 308 315 293 262 272 261 209 194 206 210 202 200 198 198 204 205 202 200 205 208 196 187 195 194 191 198 203 201 203 209 214 206 201 206 210 208 212 221 225 232 238 230 232 236 234 232 227 220 217 219 221 224 233 234 232 241 247 243 243 245
345 349 349 346 343 339 335 334 339 343 313 281 280 285 290 293 298 309 314 311 310 293 271 269 271 273 282 293 303 303 295 295 288 275 253 204 202 213 205 203 202 204 206 205 203 204 207 213 208 180 185 192 195 201 203 197 196 202 207 207 203 205 211 215 216 217 224 235 240 237 234 238 240 229 223 223 218 216 216 221 236 240 231 235 245 245 245 245
353 355 346 344 348 345 345 350 351 345 320 299 303 303 302 301 304 316 324 317 309 292 272 272 273 273 279 284 292 297 294 294 283 270 276 236 191 213 210 207 206 206 209 207 206 211 216 217 215 193 185 197 203 203 203 202 199 199 204 205 201 201 204 210 214 213 220 231 235 244 252 256 255 217 211 216 217 221 226 227 235 239 232 229 235 241 246 246
358 356 344 346 351 351 355 356 344 350 345 324 323 319 312 314 319 321 323 320 311 297 277 271 272 273 274 275 281 287 289 292 280 261 266 235 206 210 200 201 197 191 198 205 207 211 212 210 214 209 199 202 210 207 203 205 204 204 207 206 203 204 206 208 209 203 211 226 234 245 256 261 244 178 173 195 208 220 230 229 229 231 230 228 230 235 242 243
357 355 350 351 352 356 7 359 343 353 350 337 336 328 319 316 316 316 319 320 311 296 280 266 266 270 269 269 272 277 284 285 275 254 243 287 260 231 201 184 180 167 168 188 199 208 208 203 208 215 212 209 211 208 205 205 207 210 212 210 208 209 209 212 218 212 214 220 223 232 246 242 213 184 173 192 209 218 227 226 226 225 223 225 226 224 229 236
355 356 356 356 354 3 16 5 353 349 339 338 340 329 322 317 314 317 322 321 312 303 295 276 262 262 269 275 273 269 274 273 266 251 237 263 298 243 214 187 174 158 159 179 184 193 202 206 209 211 209 204 200 199 203 206 210 213 214 212 212 213 212 216 221 226 229 223 215 221 235 224 205 197 201 211 212 210 213 216 218 215 212 217 221 218 220 230
357 357 356 358 358 6 9 359 354 349 337 337 341 335 330 327 323 322 321 318 311 309 309 289 263 257 262 274 275 263 256 256 259 260 250 257 286 257 227 214 207 185 176 186 185 179 190 204 208 209 210 205 199 196 199 204 208 213 215 213 212 211 211 214 218 222 225 221 220 225 227 211 186 172 172 182 193 201 204 208 213 209 206 212 221 221 221 227
360 354 352 360 5 6 0 354 349 345 336 334 339 339 335 334 334 327 320 318 312 308 309 292 273 265 260 260 267 258 244 243 249 257 262 262 282 273 235 226 236 221 197 189 181 178 192 210 206 211 223 225 208 195 194 199 204 209 211 211 210 210 211 213 217 220 219 221 226 227 223 216 198 172 167 168 167 170 179 192 207 209 203 207 218 221 221 227
0 353 351 359 4 356 352 351 345 340 335 332 332 331 331 332 333 330 323 319 316 316 316 299 279 278 278 269 264 254 243 240 243 250 258 264 285 284 239 230 257 242 223 201 176 176 202 221 209 214 228 236 225 202 193 197 200 206 209 210 210 209 210 213 218 221 217 220 229 225 219 220 215 189 177 184 188 194 197 202 219 227 219 218 229 226 221 229
356 355 352 353 351 343 340 341 340 335 331 326 323 322 325 329 331 331 326 319 320 330 330 308 292 290 296 295 272 253 251 250 244 244 254 269 284 286 262 268 285 260 255 288 210 183 191 215 215 218 230 239 235 226 204 201 205 206 206 208 210 211 212 216 221 223 221 225 231 224 217 222 222 216 209 208 211 214 223 229 227 233 239 230 228 227 223 229
351 352 348 344 343 337 331 333 335 332 327 322 320 319 318 323 326 323 320 317 320 332 329 309 313 310 304 304 286 263 259 260 250 243 260 288 287 283 271 263 266 275 299 332 290 202 189 218 235 230 246 250 235 229 227 219 221 219 212 209 210 212 216 220 223 226 227 232 236 233 230 229 226 226 230 235 235 232 237 235 224 230 250 235 219 225 233 226
350 346 338 335 339 337 329 329 328 327 327 324 321 316 312 318 321 318 320 319 314 318 311 298 309 312 303 300 289 270 263 263 262 260 278 301 291 284 272 246 248 280 284 310 313 228 204 251 278 256 259 252 233 232 233 230 233 232 225 222 219 219 222 223 225 227 230 234 237 238 241 240 233 233 239 242 243 244 248 247 239 233 233 230 227 234 240 232
343 339 332 331 334 337 334 327 321 321 324 322 313 311 312 316 319 318 322 320 310 309 309 299 300 303 300 298 291 277 264 260 264 263 267 272 262 260 262 243 246 273 267 263 289 252 238 288 303 271 253 241 226 226 229 233 243 243 235 227 222 223 226 226 226 227 227 231 235 237 240 241 240 242 246 244 242 244 246 250 251 240 226 228 238 238 240 243
335 333 331 328 328 333 333 325 318 314 313 314 312 311 312 313 313 315 317 312 308 311 307 300 299 299 300 300 299 292 276 268 271 267 262 261 253 246 243 235 239 256 257 255 259 254 270 294 293 265 247 233 213 212 223 233 243 242 236 229 224 225 227 229 230 229 227 229 232 236 239 242 241 242 245 242 237 241 248 252 256 251 239 235 237 236 240 245
Height
3154 3153 3153 3152 3151 3150 3149 3149 3148 3147 3147 3146 3145 3145 3144 3144 3144 3143 3143 3142 3141 3141 3141 3141 3141 3141 3142 3142 3143 3143 3144 3144 3144 3145 3146 3145 3144 3145 3146 3147 3148 3151 3153 3155 3157 3160 3163 3164 3166 3167 3169 3170 3170 3171 3171 3172 3172 3173 3175 3176 3177 3177 3176 3176 3177 3177 3177 3178 3177 3177 3177 3177 3177 3176 3177 3176 3177 3177 3177 3177 3178 3178 3178 3179 3179 3180 3181 3183
3152 3152 3151 3150 3149 3148 3148 3147 3146 3145 3145 3144 3143 3143 3142 3142 3142 3141 3141 3141 3140 3139 3139 3139 3139 3139 3139 3140 3140 3141 3141 3142 3142 3143 3144 3143 3143 3144 3144 3146 3148 3150 3151 3154 3156 3159 3161 3163 3165 3166 3168 3169 3170 3170 3170 3171 3171 3172 3174 3176 3176 3177 3176 3175 3176 3176 3177 3177 3177 3177 3177 3177 3177 3176 3176 3177 3177 3177 3177 3177 3178 3178 3178 3179 3179 3179 3181 3182
3150 3150 3149 3148 3147 3146 3145 3145 3144 3143 3143 3142 3141 3141 3141 3140 3140 3140 3139 3139 3138 3138 3137 3137 3137 3136 3137 3137 3138 3139 3139 3140 3140 3141 3142 3141 3142 3142 3142 3144 3146 3149 3151 3153 3156 3158 3160 3162 3164 3165 3167 3168 3169 3169 3169 3170 3170 3172 3173 3175 3176 3176 3176 3175 3175 3176 3176 3176 3177 3177 3176 3177 3177 3176 3176 3177 3177 3177 3177 3178 3177 3178 3178 3179 3179 3180 3180 3181
3149 3148 3147 3146 3145 3144 3144 3143 3142 3141 3141 3140 3139 3139 3139 3138 3138 3138 3137 3137 3137 3137 3136 3135 3135 3135 3135 3135 3135 3136 3137 3138 3138 3139 3139 3139 3140 3140 3140 3142 3145 3147 3149 3152 3154 3156 3158 3160 3162 3164 3165 3166 3167 3168 3168 3169 3170 3171 3172 3174 3175 3175 3176 3176 3175 3175 3175 3176 3176 3177 3177 3177 3177 3176 3176 3177 3178 3178 3178 3178 3177 3177 3178 3179 3179 3180 3180 3181
3147 3146 3145 3144 3143 3143 3142 3141 3140 3139 3139 3138 3137 3137 3136 3136 3136 3136 3135 3135 3135 3135 3135 3134 3133 3133 3133 3133 3133 3133 3135 3137 3136 3136 3137 3137 3138 3138 3139 3141 3143 3145 3147 3149 3151 3153 3155 3157 3160 3161 3163 3165 3166 3166 3167 3168 3170 3170 3170 3172 3174 3174 3176 3176 3175 3175 3175 3175 3175 3176 3177 3177 3177 3176 3176 3177 3179 3179 3179 3178 3178 3178 3178 3178 3179 3180 3181 3181
3145 3144 3143 3143 3142 3141 3140 3139 3138 3137 3137 3136 3135 3134 3134 3134 3134 3134 3133 3133 3133 3133 3133 3132 3132 3131 3131 3130 3131 3131 3133 3135 3134 3133 3135 3135 3136 3137 3137 3139 3141 3142 3144 3146 3148 3150 3153 3155 3157 3158 3161 3163 3164 3165 3166 3167 3168 3169 3170 3171 3172 3173 3174 3175 3174 3174 3174 3174 3175 3175 3176 3176 3176 3176 3176 3177 3178 3179 3179 3178 3178 3178 3178 3178 3178 3179 3180 3181
3143 3142 3141 3140 3139 3138 3138 3137 3136 3135 3134 3133 3132 3132 3132 3132 3132 3131 3131 3131 3131 3131 3130 3130 3130 3130 3129 3128 3129 3129 3129 3131 3132 3132 3132 3133 3134 3135 3135 3137 3139 3140 3142 3144 3145 3148 3151 3153 3155 3157 3160 3162 3163 3165 3165 3166 3167 3167 3169 3170 3171 3172 3172 3173 3173 3173 3173 3173 3174 3174 3175 3175 3175 3176 3176 3176 3178 3178 3178 3178 3178 3178 3178 3178 3178 3179 3180 3182
3141 3140 3139 3138 3137 3136 3135 3134 3134 3133 3132 3131 3130 3130 3130 3129 3129 3129 3128 3128 3128 3128 3128 3128 3128 3128 3127 3127 3127 3127 3127 3129 3129 3129 3130 3131 3132 3133 3134 3135 3137 3139 3140 3142 3144 3147 3150 3151 3154 3157 3159 3160 3162 3163 3163 3165 3166 3166 3167 3169 3170 3171 3171 3171 3172 3172 3172 3173 3173 3173 3174 3174 3174 3175 3175 3176 3177 3177 3177 3177 3178 3178 3178 3178 3178 3179 3179 3181
3139 3138 3137 3136 3135 3134 3133 3132 3131 3130 3130 3129 3128 3127 3127 3127 3126 3126 3126 3126 3125 3126 3125 3125 3126 3126 3125 3125 3125 3125 3125 3126 3125 3125 3127 3129 3131 3131 3132 3134 3135 3137 3139 3141 3143 3146 3148 3150 3153 3156 3158 3160 3160 3161 3162 3164 3165 3165 3166 3168 3168 3169 3170 3170 3171 3171 3172 3172 3172 3172 3173 3173 3174 3173 3174 3175 3176 3176 3176 3177 3177 3178 3178 3178 3179 3179 3179 3180
3138 3136 3135 3134 3132 3131 3130 3130 3129 3128 3127 3126 3125 3124 3124 3124 3124 3124 3124 3123 3123 3123 3123 3123 3123 3123 3123 3123 3123 3124 3124 3123 3122 3123 3125 3127 3129 3130 3131 3132 3134 3136 3137 3139 3141 3143 3146 3149 3153 3155 3157 3158 3158 3159 3160 3162 3164 3163 3164 3166 3166 3168 3168 3168 3169 3170 3171 3171 3171 3171 3172 3173 3173 3172 3173 3174 3174 3175 3175 3176 3177 3177 3178 3178 3179 3179 3179 3180
3136 3135 3133 3131 3130 3129 3127 3127 3126 3125 3124 3123 3122 3121 3122 3121 3121 3121 3121 3121 3120 3120 3120 3121 3121 3121 3121 3121 3121 3122 3122 3121 3121 3122 3123 3125 3127 3128 3129 3131 3132 3134 3136 3138 3140 3142 3145 3149 3152 3153 3155 3156 3157 3158 3159 3160 3161 3162 3163 3164 3165 3166 3167 3167 3168 3169 3170 3170 3170 3170 3171 3171 3171 3170 3172 3173 3173 3173 3174 3175 3176 3176 3177 3178 3178 3179 3179 3180
3134 3133 3131 3129 3128 3126 3125 3124 3124 3123 3122 3121 3119 3119 3119 3118 3118 3118 3118 3118 3118 3118 3118 3118 3118 3118 3118 3118 3119 3120 3119 3119 3120 3120 3122 3123 3125 3126 3128 3129 3131 3132 3134 3136 3139 3142 3145 3147 3148 3150 3153 3154 3156 3158 3157 3157 3159 3161 3161 3162 3164 3165 3165 3166 3167 3168 3169 3169 3170 3170 3169 3169 3168 3168 3170 3171 3171 3172 3173 3174 3175 3175 3177 3177 3178 3178 3179 3179
3132 3131 3129 3127 3125 3123 3122 3121 3121 3120 3119 3118 3117 3116 3116 3115 3115 3115 3115 3115 3115 3115 3115 3115 3115 3115 3115 3116 3117 3117 3116 3117 3118 3118 3120 3121 3123 3124 3126 3128 3129 3131 3133 3135 3138 3141 3143 3144 3145 3149 3151 3152 3156 3156 3154 3155 3157 3159 3160 3161 3163 3163 3163 3165 3166 3167 3168 3168 3168 3169 3168 3167 3167 3167 3168 3170 3170 3171 3172 3172 3174 3174 3175 3176 3177 3178 3179 3179
3130 3128 3126 3125 3123 3121 3119 3119 3118 3117 3117 3116 3114 3114 3113 3113 3112 3112 3112 3112 3112 3113 3112 3112 3113 3112 3112 3113 3115 3114 3114 3115 3116 3117 3118 3119 3121 3122 3124 3126 3128 3129 3130 3132 3135 3137 3140 3142 3144 3147 3148 3150 3154 3152 3153 3156 3156 3158 3160 3160 3161 3162 3162 3164 3165 3165 3166 3167 3166 3168 3167 3165 3166 3166 3167 3168 3169 3170 3171 3171 3172 3173 3174 3175 3176 3177 3178 3179
3127 3126 3124 3122 3120 3117 3116 3116 3115 3115 3114 3113 3112 3111 3110 3109 3109 3109 3109 3109 3109 3109 3109 3109 3110 3109 3109 3111 3112 3111 3112 3112 3114 3116 3116 3117 3119 3121 3123 3124 3126 3127 3128 3130 3131 3133 3136 3139 3141 3144 3145 3147 3149 3150 3153 3156 3155 3157 3159 3158 3159 3160 3161 3162 3162 3163 3165 3165 3164 3166 3166 3164 3165 3166 3166 3167 3168 3169 3170 3170 3171 3172 3173 3174 3175 3176 3177 3178
3125 3123 3121 3119 3117 3115 3114 3113 3112 3112 3111 3109 3108 3107 3107 3106 3106 3106 3106 3105 3105 3106 3106 3106 3106 3107 3107 3108 3109 3109 3109 3110 3113 3113 3113 3115 3117 3119 3120 3122 3124 3125 3126 3128 3130 3131 3133 3136 3138 3141 3143 3145 3145 3148 3153 3154 3154 3155 3155 3155 3156 3157 3159 3160 3160 3161 3163 3164 3163 3164 3164 3164 3165 3165 3165 3166 3166 3167 3168 3169 3170 3171 3172 3173 3174 3175 3176 3177
3122 3120 3118 3116 3114 3111 3111 3110 3109 3109 3107 3106 3105 3104 3103 3103 3102 3103 3103 3102 3102 3102 3103 3103 3103 3103 3103 3105 3106 3106 3106 3108 3110 3110 3111 3113 3115 3116 3118 3120 3122 3124 3125 3126 3127 3129 3131 3133 3136 3138 3140 3142 3144 3148 3150 3148 3149 3151 3152 3154 3154 3155 3157 3158 3158 3159 3160 3161 3162 3162 3162 3163 3164 3164 3163 3164 3165 3165 3166 3167 3168 3169 3170 3171 3172 3174 3175 3176
3119 3117 3115 3113 3110 3108 3107 3107 3106 3105 3104 3102 3102 3101 3100 3099 3099 3099 3099 3099 3099 3099 3099 3099 3100 3100 3101 3101 3102 3103 3104 3105 3106 3107 3109 3111 3112 3114 3116 3119 3121 3122 3124 3125 3126 3128 3129 3131 3134 3136 3137 3137 3140 3142 3140 3140 3144 3148 3149 3151 3152 3153 3154 3155 3156 3156 3157 3159 3160 3161 3160 3161 3163 3163 3162 3163 3164 3164 3164 3166 3166 3168 3169 3170 3171 3172 3173 3174
3115 3114 3112 3110 3107 3104 3103 3102 3102 3101 3100 3099 3098 3097 3097 3096 3096 3095 3095 3095 3095 3096 3095 3095 3096 3098 3097 3098 3099 3099 3100 3102 3103 3105 3107 3109 3110 3112 3115 3117 3119 3120 3121 3122 3124 3125 3127 3130 3131 3130 3131 3131 3133 3135 3136 3140 3145 3146 3147 3149 3150 3151 3152 3153 3155 3154 3155 3157 3158 3159 3159 3160 3162 3162 3160 3160 3162 3162 3163 3163 3164 3165 3167 3168 3169 3170 3171 3173
3112 3111 3109 3106 3103 3101 3099 3098 3098 3097 3096 3095 3094 3093 3093 3093 3092 3091 3091 3092 3091 3092 3092 3091 3092 3094 3094 3095 3096 3096 3097 3099 3100 3102 3104 3106 3108 3110 3112 3114 3116 3118 3119 3120 3122 3123 3125 3126 3124 3122 3125 3128 3131 3133 3137 3141 3143 3144 3146 3147 3148 3149 3150 3152 3154 3152 3153 3155 3156 3157 3157 3158 3159 3160 3159 3158 3159 3160 3160 3161 3162 3163 3165 3166 3168 3169 3170 3171
3109 3108 3106 3104 3101 3098 3095 3094 3094 3093 3092 3091 3090 3089 3089 3089 3088 3087 3086 3088 3088 3087 3087 3088 3088 3089 3091 3091 3092 3094 3095 3095 3097 3098 3100 3103 3106 3107 3109 3110 3112 3114 3115 3119 3122 3122 3123 3120 3118 3120 3125 3129 3131 3133 3136 3139 3141 3142 3144 3145 3146 3147 3147 3150 3152 3150 3151 3153 3154 3155 3155 3155 3156 3158 3158 3156 3156 3158 3159 3159 3160 3161 3163 3164 3166 3167 3168 3170
3106 3105 3104 3102 3099 3095 3093 3091 3090 3089 3088 3087 3086 3085 3085 3085 3085 3083 3081 3082 3084 3083 3082 3084 3083 3083 3087 3087 3089 3091 3090 3092 3094 3094 3096 3099 3101 3103 3105 3107 3109 3110 3114 3118 3119 3120 3118 3114 3115 3121 3125 3128 3130 3131 3133 3136 3138 3139 3141 3143 3143 3144 3146 3148 3149 3148 3149 3150 3152 3153 3153 3153 3154 3155 3155 3153 3153 3156 3157 3157 3158 3159 3161 3162 3164 3165 3166 3168
3103 3102 3101 3099 3097 3093 3090 3088 3087 3086 3084 3083 3083 3082 3081 3081 3081 3080 3077 3076 3080 3080 3078 3079 3078 3079 3083 3083 3084 3085 3085 3089 3090 3090 3093 3094 3096 3100 3102 3103 3106 3109 3112 3112 3113 3113 3111 3110 3115 3121 3123 3125 3128 3129 3131 3133 3135 3136 3138 3139 3138 3141 3144 3145 3146 3147 3148 3149 3150 3152 3151 3149 3151 3152 3151 3151 3150 3153 3155 3155 3156 3157 3158 3160 3162 3163 3164 3165
3100 3099 3098 3097 3095 3092 3089 3087 3084 3083 3082 3081 3080 3079 3078 3078 3077 3076 3074 3071 3072 3076 3075 3074 3074 3076 3077 3077 3079 3080 3081 3085 3086 3087 3089 3090 3093 3097 3098 3101 3104 3107 3107 3107 3109 3109 3109 3110 3114 3118 3120 3123 3124 3125 3128 3130 3132 3132 3134 3135 3136 3140 3142 3143 3145 3145 3146 3146 3147 3150 3149 3145 3147 3148 3148 3148 3147 3149 3152 3153 3154 3155 3156 3158 3159 3160 3162 3163
3097 3096 3095 3093 3093 3090 3087 3085 3083 3081 3080 3078 3077 3077 3076 3075 3074 3073 3072 3068 3066 3069 3070 3068 3069 3071 3071 3071 3073 3076 3078 3079 3081 3084 3085 3086 3090 3093 3095 3099 3101 3103 3104 3106 3109 3108 3109 3111 3112 3115 3118 3119 3121 3123 3124 3127 3129 3129 3129 3131 3135 3139 3141 3142 3143 3144 3144 3144 3145 3148 3145 3140 3142 3144 3145 3146 3144 3144 3148 3151 3151 3152 3153 3155 3156 3158 3160 3161
3095 3094 3092 3090 3090 3088 3086 3083 3081 3079 3078 3076 3074 3074 3073 3073 3072 3071 3070 3067 3063 3064 3064 3063 3065 3066 3065 3066 3067 3073 3075 3073 3077 3081 3080 3082 3088 3090 3093 3095 3096 3099 3102 3106 3108 3106 3108 3110 3109 3112 3115 3115 3118 3119 3121 3124 3126 3126 3127 3130 3134 3136 3138 3140 3141 3142 3141 3141 3142 3145 3142 3137 3138 3139 3141 3143 3142 3141 3144 3147 3148 3150 3151 3152 3154 3156 3158 3159
3092 3092 3091 3088 3086 3086 3084 3082 3080 3077 3076 3075 3073 3072 3072 3071 3071 3070 3070 3067 3060 3059 3060 3059 3060 3060 3061 3061 3063 3069 3070 3069 3073 3075 3074 3079 3084 3086 3090 3091 3092 3096 3100 3104 3103 3099 3103 3107 3106 3108 3111 3113 3114 3115 3118 3122 3123 3123 3126 3129 3130 3133 3135 3137 3139 3139 3139 3140 3140 3140 3141 3138 3134 3135 3138 3140 3140 3139 3141 3143 3145 3147 3149 3150 3151 3153 3155 3157
3090 3089 3089 3087 3084 3082 3081 3080 3079 3076 3075 3073 3071 3071 3070 3069 3070 3069 3071 3067 3057 3055 3057 3056 3057 3057 3058 3058 3060 3064 3064 3065 3069 3069 3072 3077 3080 3082 3085 3087 3089 3092 3096 3098 3095 3095 3099 3102 3102 3104 3108 3109 3110 3112 3116 3119 3120 3122 3126 3126 3127 3130 3133 3135 3137 3137 3138 3138 3135 3135 3139 3136 3128 3130 3135 3136 3137 3137 3137 3140 3142 3144 3146 3147 3149 3150 3152 3154
3087 3086 3086 3086 3083 3081 3079 3077 3076 3075 3073 3072 3070 3069 3068 3069 3068 3069 3072 3066 3055 3053 3055 3055 3055 3055 3055 3056 3058 3059 3060 3063 3065 3064 3069 3074 3076 3079 3080 3084 3089 3091 3094 3094 3093 3096 3098 3098 3100 3102 3104 3106 3108 3111 3114 3116 3117 3121 3124 3123 3126 3129 3130 3133 3134 3135 3137 3133 3127 3130 3135 3131 3123 3125 3131 3131 3132 3134 3135 3137 3139 3140 3144 3145 3147 3148 3149 3151
3085 3083 3082 3083 3082 3080 3078 3076 3074 3073 3072 3070 3069 3068 3067 3067 3067 3068 3068 3061 3053 3052 3053 3053 3054 3054 3054 3055 3056 3056 3057 3060 3061 3061 3065 3069 3072 3076 3079 3084 3089 3090 3092 3092 3092 3095 3096 3096 3098 3099 3100 3103 3107 3110 3112 3113 3115 3120 3122 3122 3125 3127 3128 3131 3130 3133 3133 3123 3120 3126 3130 3129 3121 3117 3124 3126 3127 3130 3132 3136 3137 3137 3140 3143 3145 3146 3147 3148
3083 3081 3079 3078 3078 3077 3076 3074 3072 3071 3070 3069 3067 3066 3066 3066 3066 3066 3060 3052 3050 3051 3051 3051 3051 3051 3052 3053 3054 3055 3056 3058 3059 3060 3062 3064 3068 3072 3075 3079 3083 3086 3088 3087 3087 3092 3093 3092 3094 3095 3097 3101 3106 3108 3109 3111 3114 3118 3119 3121 3123 3124 3126 3128 3128 3131 3124 3112 3116 3123 3126 3129 3118 3109 3117 3123 3124 3127 3129 3132 3135 3134 3136 3140 3142 3144 3145 3145
3081 3079 3077 3075 3074 3073 3073 3072 3071 3069 3068 3067 3066 3065 3065 3065 3063 3059 3053 3049 3050 3049 3048 3048 3048 3049 3050 3050 3051 3053 3054 3056 3056 3057 3058 3060 3063 3064 3066 3069 3072 3076 3078 3079 3083 3087 3088 3088 3090 3092 3094 3097 3102 3104 3106 3108 3111 3114 3116 3118 3119 3118 3121 3123 3120 3120 3114 3109 3116 3120 3122 3122 3110 3105 3115 3120 3121 3124 3125 3128 3133 3133 3134 3136 3140 3142 3142 3143
3078 3077 3075 3073 3071 3070 3069 3068 3068 3067 3066 3065 3064 3064 3065 3063 3057 3053 3051 3051 3048 3045 3045 3046 3046 3047 3048 3049 3051 3051 3052 3053 3054 3055 3057 3059 3061 3061 3063 3066 3069 3070 3071 3076 3080 3081 3084 3086 3087 3088 3088 3090 3095 3098 3100 3102 3105 3108 3110 3112 3112 3110 3114 3115 3113 3111 3109 3109 3114 3118 3119 3113 3105 3106 3112 3114 3117 3120 3122 3124 3128 3131 3132 3133 3137 3139 3140 3141
3076 3074 3073 3070 3069 3067 3066 3065 3065 3064 3064 3063 3063 3063 3063 3059 3053 3051 3051 3049 3045 3044 3045 3045 3045 3046 3047 3049 3049 3048 3050 3051 3051 3053 3055 3057 3058 3059 3061 3064 3066 3069 3072 3074 3074 3074 3077 3076 3076 3079 3081 3083 3088 3093 3096 3099 3102 3103 3106 3108 3107 3105 3106 3108 3106 3105 3105 3106 3109 3114 3113 3106 3104 3106 3106 3109 3113 3116 3118 3121 3124 3128 3130 3131 3133 3136 3138 3139
3074 3072 3070 3068 3066 3065 3063 3062 3061 3061 3061 3061 3061 3061 3059 3055 3052 3051 3049 3046 3044 3044 3043 3044 3045 3047 3047 3047 3047 3046 3048 3048 3048 3051 3052 3053 3054 3055 3057 3059 3062 3066 3069 3069 3068 3070 3070 3068 3069 3074 3077 3080 3083 3089 3094 3097 3099 3100 3104 3105 3103 3103 3104 3104 3102 3102 3103 3103 3103 3106 3104 3101 3103 3103 3102 3106 3110 3112 3115 3117 3120 3123 3126 3129 3130 3132 3135 3136
3072 3070 3068 3065 3064 3062 3061 3060 3059 3058 3058 3058 3059 3058 3056 3053 3051 3049 3047 3045 3045 3044 3044 3045 3046 3046 3046 3046 3045 3045 3045 3045 3046 3048 3049 3050 3052 3053 3056 3058 3060 3062 3065 3065 3064 3065 3066 3067 3069 3071 3074 3078 3080 3085 3090 3092 3094 3096 3098 3097 3097 3102 3105 3103 3101 3102 3104 3101 3098 3099 3099 3101 3102 3099 3099 3104 3106 3109 3112 3113 3117 3120 3122 3126 3127 3129 3132 3133
3070 3067 3065 3063 3061 3060 3058 3057 3056 3056 3055 3056 3056 3055 3053 3051 3049 3047 3046 3045 3045 3046 3047 3047 3047 3045 3045 3044 3044 3043 3043 3044 3045 3045 3046 3048 3049 3049 3051 3052 3054 3057 3061 3062 3061 3062 3063 3065 3067 3068 3071 3075 3078 3083 3087 3088 3090 3092 3092 3093 3098 3103 3103 3102 3101 3099 3101 3099 3095 3095 3095 3097 3098 3095 3096 3099 3101 3105 3108 3110 3114 3116 3119 3122 3123 3126 3128 3130
3067 3065 3063 3061 3059 3057 3055 3054 3053 3053 3053 3054 3054 3053 3051 3050 3048 3047 3046 3044 3044 3046 3048 3047 3046 3044 3044 3044 3042 3041 3041 3042 3043 3043 3043 3044 3044 3044 3045 3046 3048 3050 3051 3053 3057 3060 3061 3062 3063 3066 3069 3072 3076 3081 3083 3084 3086 3088 3090 3092 3095 3096 3096 3098 3098 3095 3095 3094 3091 3090 3091 3092 3092 3092 3093 3096 3097 3101 3104 3107 3110 3113 3116 3118 3120 3123 3125 3127
3065 3063 3061 3060 3057 3055 3053 3052 3051 3051 3052 3052 3052 3051 3050 3048 3047 3046 3045 3043 3044 3045 3046 3046 3045 3044 3044 3043 3042 3041 3041 3041 3041 3041 3041 3041 3040 3040 3041 3043 3044 3045 3046 3049 3055 3058 3059 3060 3060 3063 3068 3070 3073 3074 3074 3077 3082 3085 3088 3089 3090 3090 3090 3092 3092 3091 3090 3088 3086 3087 3086 3085 3086 3089 3092 3094 3095 3099 3102 3104 3106 3110 3113 3115 3117 3120 3122 3124
3064 3062 3060 3058 3056 3054 3051 3050 3050 3050 3051 3051 3050 3049 3048 3046 3045 3045 3044 3043 3043 3044 3044 3044 3043 3043 3042 3042 3041 3041 3041 3040 3040 3040 3039 3039 3038 3037 3037 3039 3040 3041 3044 3048 3053 3056 3058 3059 3058 3060 3065 3066 3065 3065 3066 3071 3075 3079 3081 3082 3083 3086 3087 3088 3088 3088 3088 3085 3084 3083 3081 3080 3083 3085 3088 3091 3094 3096 3099 3101 3103 3106 3110 3112 3114 3117 3119 3121
3062 3061 3060 3057 3055 3053 3050 3050 3050 3050 3050 3050 3049 3048 3046 3044 3043 3043 3043 3042 3041 3042 3042 3042 3041 3041 3041 3041 3040 3040 3040 3039 3039 3039 3038 3038 3038 3037 3036 3036 3038 3040 3043 3047 3052 3055 3057 3058 3057 3058 3059 3059 3059 3061 3065 3069 3071 3073 3075 3076 3078 3081 3083 3084 3082 3083 3085 3083 3082 3082 3080 3080 3081 3082 3085 3089 3092 3094 3096 3099 3100 3103 3106 3109 3112 3114 3116 3118
3062 3061 3059 3056 3053 3051 3050 3051 3051 3049 3049 3048 3047 3046 3045 3043 3043 3043 3042 3041 3040 3040 3040 3040 3040 3040 3039 3040 3039 3039 3038 3038 3037 3037 3037 3036 3035 3034 3034 3035 3036 3039 3043 3047 3050 3051 3052 3055 3055 3055 3055 3057 3059 3061 3064 3067 3069 3071 3072 3074 3076 3077 3078 3078 3077 3079 3082 3082 3082 3083 3080 3080 3081 3081 3084 3087 3090 3092 3094 3096 3098 3101 3103 3106 3109 3112 3113 3114
3062 3060 3057 3054 3052 3051 3050 3051 3050 3049 3048 3047 3046 3045 3045 3043 3042 3041 3041 3039 3038 3038 3038 3038 3038 3038 3038 3038 3038 3038 3038 3037 3036 3036 3036 3035 3034 3033 3033 3034 3035 3037 3040 3044 3045 3046 3049 3052 3053 3054 3055 3057 3059 3060 3062 3065 3067 3067 3067 3069 3071 3072 3074 3076 3076 3078 3079 3078 3080 3081 3079 3079 3080 3080 3083 3086 3088 3091 3093 3094 3096 3098 3101 3104 3106 3109 3110 3111
3060 3058 3056 3054 3052 3051 3051 3051 3050 3049 3048 3046 3045 3045 3044 3043 3041 3040 3039 3038 3036 3036 3036 3036 3036 3036 3036 3036 3036 3036 3037 3037 3035 3034 3035 3035 3033 3032 3032 3033 3034 3035 3036 3038 3039 3041 3046 3049 3051 3052 3052 3052 3055 3056 3057 3059 3059 3059 3061 3064 3066 3069 3072 3074 3076 3077 3075 3074 3077 3076 3076 3078 3079 3078 3081 3085 3087 3089 3091 3093 3094 3096 3098 3101 3103 3105 3107 3109
3059 3058 3056 3054 3052 3051 3051 3050 3049 3049 3047 3046 3045 3044 3042 3042 3041 3039 3037 3037 3035 3035 3035 3034 3033 3033 3033 3034 3034 3035 3036 3036 3035 3033 3033 3034 3033 3032 3032 3032 3033 3033 3033 3034 3035 3038 3042 3045 3046 3046 3044 3043 3045 3046 3047 3049 3052 3054 3057 3059 3062 3066 3068 3070 3073 3073 3071 3072 3074 3073 3074 3077 3078 3078 3080 3083 3085 3087 3089 3091 3093 3094 3096 3098 3101 3102 3105 3107
3059 3058 3056 3054 3052 3051 3051 3050 3049 3048 3047 3045 3044 3043 3042 3041 3040 3038 3037 3036 3035 3034 3034 3033 3032 3031 3031 3031 3032 3033 3034 3034 3034 3033 3033 3033 3033 3032 3031 3031 3032 3032 3032 3033 3035 3037 3039 3040 3041 3041 3039 3039 3040 3041 3042 3045 3048 3050 3053 3056 3059 3061 3064 3067 3067 3066 3067 3071 3071 3070 3074 3077 3077 3078 3080 3082 3084 3086 3088 3090 3092 3094 3095 3097 3099 3100 3102 3105
3060 3058 3055 3053 3052 3051 3051 3050 3049 3048 3047 3045 3044 3043 3042 3041 3040 3038 3036 3036 3034 3033 3032 3031 3031 3031 3030 3029 3029 3030 3032 3032 3032 3032 3032 3033 3032 3031 3031 3031 3032 3031 3032 3033 3034 3036 3038 3039 3039 3038 3038 3038 3038 3039 3041 3043 3045 3047 3050 3053 3055 3058 3061 3062 3061 3061 3066 3067 3065 3068 3073 3075 3076 3078 3079 3081 3083 3085 3087 3089 3091 3092 3093 3095 3097 3098 3100 3102
3059 3058 3056 3054 3053 3052 3050 3049 3048 3047 3046 3045 3044 3043 3042 3041 3040 3038 3036 3035 3034 3033 3032 3032 3030 3030 3030 3029 3029 3029 3029 3030 3031 3031 3032 3031 3031 3031 3031 3032 3032 3031 3032 3034 3034 3034 3036 3038 3037 3037 3037 3037 3037 3039 3040 3042 3044 3045 3047 3050 3052 3055 3056 3056 3057 3061 3063 3062 3063 3067 3071 3072 3074 3077 3078 3080 3082 3084 3086 3088 3089 3090 3091 3092 3094 3096 3097 3099
3059 3057 3056 3054 3053 3051 3049 3048 3047 3046 3045 3044 3043 3042 3041 3040 3039 3038 3036 3034 3033 3033 3033 3032 3031 3030 3029 3029 3029 3028 3027 3028 3029 3029 3029 3029 3029 3030 3031 3032 3032 3031 3032 3033 3033 3033 3035 3036 3035 3035 3036 3035 3036 3038 3040 3042 3043 3044 3045 3048 3049 3051 3053 3054 3056 3059 3060 3061 3063 3067 3068 3069 3073 3075 3077 3079 3081 3082 3084 3085 3086 3088 3089 3091 3092 3094 3095 3097
3058 3057 3055 3053 3052 3050 3048 3047 3046 3045 3044 3043 3042 3041 3040 3039 3038 3036 3035 3034 3032 3032 3032 3032 3031 3030 3029 3028 3028 3027 3026 3027 3026 3026 3026 3027 3028 3029 3030 3031 3031 3030 3030 3032 3033 3033 3034 3035 3034 3034 3034 3034 3035 3038 3040 3041 3042 3043 3044 3046 3047 3048 3050 3052 3054 3056 3058 3059 3062 3065 3066 3067 3070 3073 3074 3076 3078 3079 3081 3082 3083 3085 3086 3088 3090 3091 3093 3095
3058 3057 3054 3052 3050 3049 3047 3046 3045 3043 3042 3041 3041 3039 3038 3037 3036 3035 3034 3033 3032 3031 3031 3030 3029 3029 3028 3027 3027 3026 3025 3025 3024 3024 3024 3025 3026 3027 3028 3029 3029 3028 3029 3031 3032 3032 3034 3034 3033 3034 3034 3034 3035 3037 3038 3040 3042 3041 3040 3041 3043 3045 3047 3049 3051 3053 3055 3057 3059 3061 3061 3064 3068 3071 3071 3073 3075 3076 3077 3079 3081 3082 3083 3085 3087 3088 3090 3092
3057 3056 3054 3051 3049 3047 3046 3045 3043 3042 3041 3040 3039 3038 3037 3036 3035 3034 3032 3031 3030 3030 3030 3029 3028 3027 3027 3026 3026 3025 3024 3023 3022 3022 3022 3022 3023 3024 3025 3026 3027 3027 3028 3030 3031 3032 3033 3033 3034 3034 3034 3033 3034 3036 3037 3040 3039 3034 3032 3036 3040 3042 3045 3047 3048 3049 3052 3054 3056 3057 3059 3063 3066 3067 3068 3070 3072 3073 3074 3076 3077 3079 3080 3082 3083 3085 3087 3089